Weather History for KOLV - January, 2012

Change the Weather History Date:

Saturday, January 14, 2012

  Actual Average (KMEM) Record (KMEM)
Temperature  
Mean Temperature 38 °F 41 °F  
Max Temperature 53 °F 49 °F 75 °F (1937)
Min Temperature 24 °F 32 °F 10 °F (1963)
Degree Days  
Heating Degree Days 26 24  
Month to date heating degree days 336  
Since 1 July heating degree days 1500  
Cooling Degree Days 0 0  
Month to date cooling degree days 0  
Year to date cooling degree days 0  
Moisture  
Dew Point 26 °F    
Average Humidity 69    
Maximum Humidity 87    
Minimum Humidity 38    
Precipitation  
Precipitation 0.00 in 0.12 in 2.43 in (1989)
Month to date precipitation 1.83  
Year to date precipitation 1.83  
Snow  
Snow 0.00 in 0.00 in 0.60 in (1917)
Month to date snowfall 0.8  
Since 1 July snowfall 1.0  
Snow Depth -    
Sea Level Pressure  
Sea Level Pressure 30.22 in    
Wind  
Wind Speed 8 mph (WSW)    
Max Wind Speed 18 mph    
Max Gust Speed 29 mph    
Visibility 10 miles    
Events      
T = Trace of Precipitation, MM = Missing Value Source: NWS Daily Summary

Daily Weather History Graph

Daily Weather History Graph

Search for Another Location

Airport or City:

Trip Planner

Search our weather history database for the weather conditions in past years. The results will help you decide how hot, cold, wet, or windy it might be!

Date:

Astronomy

Jan. 14, 2012 Rise Set
Actual Time 7:06 AM CST 5:09 PM CST
Civil Twilight 6:39 AM CST 5:37 PM CST
Nautical Twilight 6:08 AM CST 6:08 PM CST
Astronomical Twilight 5:37 AM CST 6:38 PM CST
Moon 11:12 PM CST (1/14) 10:08 AM CST (1/14)
Length of Visible Light 10h 57m
Length of Day
10h 02m
Waning Gibbous, 68% of the Moon is Illuminated
Jan 14
Waning Gibbous
Jan 16
Last Quarter
Jan 23
New
Jan 30
First Quarter
Feb 7
Full

Hourly Weather History & Observations

Time (CST) Temp. Windchill Dew Point Humidity Pressure Visibility Wind Dir Wind Speed Gust Speed Precip Events Conditions
12:15 AM 26.6 °F 20.0 °F 21.2 °F 80% 30.22 in 10.0 mi SSW 5.8 mph - 0.00 in   Clear
12:35 AM 26.6 °F 20.0 °F 21.2 °F 80% 30.22 in 10.0 mi South 5.8 mph - 0.00 in   Clear
12:55 AM 24.8 °F - 21.2 °F 86% 30.22 in 9.0 mi Calm Calm - 0.00 in   Clear
1:15 AM 24.8 °F 17.9 °F 21.2 °F 86% 30.22 in 10.0 mi South 5.8 mph - 0.00 in   Clear
1:35 AM 24.8 °F 16.9 °F 21.2 °F 86% 30.22 in 9.0 mi South 6.9 mph - 0.00 in   Clear
1:55 AM 24.8 °F 16.9 °F 21.2 °F 86% 30.22 in 10.0 mi South 6.9 mph - 0.00 in   Clear
2:15 AM 24.8 °F 16.9 °F 21.2 °F 86% 30.22 in 10.0 mi South 6.9 mph - 0.00 in   Clear
2:35 AM 24.8 °F 16.1 °F 21.2 °F 86% 30.21 in 10.0 mi South 8.1 mph - 0.00 in   Clear
2:55 AM 24.8 °F 16.1 °F 19.4 °F 80% 30.22 in 10.0 mi South 8.1 mph - 0.00 in   Clear
3:15 AM 24.8 °F 16.9 °F 19.4 °F 80% 30.21 in 10.0 mi South 6.9 mph - 0.00 in   Clear
3:35 AM 24.8 °F 16.9 °F 19.4 °F 80% 30.21 in 9.0 mi South 6.9 mph - 0.00 in   Clear
3:55 AM 26.6 °F 19.1 °F 19.4 °F 74% 30.21 in 10.0 mi South 6.9 mph - 0.00 in   Clear
4:15 AM 26.6 °F 19.1 °F 19.4 °F 74% 30.20 in 10.0 mi South 6.9 mph - 0.00 in   Clear
4:35 AM 26.6 °F 19.1 °F 19.4 °F 74% 30.19 in 10.0 mi South 6.9 mph - 0.00 in   Clear
4:55 AM 26.6 °F 18.2 °F 19.4 °F 74% 30.18 in 10.0 mi South 8.1 mph - 0.00 in   Clear
5:15 AM 26.6 °F 19.1 °F 21.2 °F 80% 30.18 in 10.0 mi South 6.9 mph - 0.00 in   Clear
5:35 AM 26.6 °F 18.2 °F 21.2 °F 80% 30.17 in 9.0 mi South 8.1 mph - 0.00 in   Clear
6:50 AM 28.4 °F 18.0 °F 23.0 °F 80% 30.15 in 10.0 mi South 12.7 mph - N/A   Partly Cloudy
7:45 AM 30.2 °F 20.2 °F 24.8 °F 80% 30.15 in 11.0 mi SSW 12.7 mph - N/A   Clear
8:50 AM 35.6 °F 27.5 °F 26.6 °F 70% 30.14 in 10.0 mi SSW 11.5 mph 21.9 mph N/A   Partly Cloudy
9:45 AM 42.8 °F 35.1 °F 26.6 °F 53% 30.13 in 10.0 mi WSW 16.1 mph 25.3 mph N/A   Partly Cloudy
10:50 AM 46.4 °F 39.8 °F 28.4 °F 50% 30.12 in 10.0 mi WSW 16.1 mph 24.2 mph N/A   Partly Cloudy
11:45 AM 48.2 °F - 28.4 °F 46% 30.11 in 10.0 mi WSW 18.4 mph 28.8 mph N/A   Partly Cloudy
1:50 PM 53.6 °F - 30.2 °F 41% 30.08 in 10.0 mi WSW 17.3 mph 23.0 mph N/A   Partly Cloudy
2:50 PM 53.6 °F - 28.4 °F 38% 30.10 in 10.0 mi West 12.7 mph 23.0 mph N/A   Partly Cloudy
3:50 PM 51.8 °F - 30.2 °F 44% 30.13 in 10.0 mi West 12.7 mph 23.0 mph N/A   Partly Cloudy
4:50 PM 51.8 °F - 28.4 °F 41% 30.15 in 10.0 mi West 8.1 mph 17.3 mph N/A   Clear
5:50 PM 46.4 °F 44.3 °F 28.4 °F 50% 30.19 in 10.0 mi WNW 4.6 mph - N/A   Clear
6:50 PM 46.4 °F 43.5 °F 30.2 °F 53% 30.22 in 10.0 mi NW 5.8 mph - N/A   Clear
7:50 PM 44.6 °F 40.2 °F 30.2 °F 57% 30.26 in 10.0 mi NNW 8.1 mph - N/A   Clear
7:55 PM 44.6 °F 39.2 °F 30.2 °F 57% 30.25 in 10.0 mi NNW 10.4 mph - 0.00 in   Clear
8:15 PM 44.6 °F 39.7 °F 30.2 °F 57% 30.27 in 10.0 mi NW 9.2 mph - 0.00 in   Clear
8:35 PM 42.8 °F 36.6 °F 30.2 °F 61% 30.28 in 10.0 mi NW 11.5 mph - N/A   Clear
8:55 PM 42.8 °F 36.6 °F 30.2 °F 61% 30.28 in 10.0 mi NNW 11.5 mph - 0.00 in   Clear
9:15 PM 42.8 °F 37.5 °F 30.2 °F 61% 30.29 in 10.0 mi NNW 9.2 mph - 0.00 in   Clear
9:35 PM 42.8 °F 36.6 °F 30.2 °F 61% 30.30 in 10.0 mi North 11.5 mph - 0.00 in   Clear
9:55 PM 39.2 °F 33.6 °F 30.2 °F 70% 30.31 in 10.0 mi NNW 8.1 mph - 0.00 in   Clear
10:15 PM 37.4 °F 31.4 °F 30.2 °F 75% 30.31 in 10.0 mi North 8.1 mph - 0.00 in   Clear
10:35 PM 37.4 °F 31.4 °F 30.2 °F 75% 30.32 in 10.0 mi North 8.1 mph - 0.00 in   Clear
10:55 PM 37.4 °F 32.8 °F 30.2 °F 75% 30.32 in 9.0 mi North 5.8 mph - 0.00 in   Clear
11:35 PM 33.8 °F 27.7 °F 30.2 °F 87% 30.33 in 10.0 mi North 6.9 mph - 0.00 in   Clear
11:55 PM 35.6 °F 29.9 °F 30.2 °F 81% 30.33 in 10.0 mi NNE 6.9 mph - 0.00 in   Clear